FW7748 Weather Reports


time (UTC)temp
C
wind
direction
speed
KPH
gust
KPH
rain 1hr
cm
rain 24hr
cm
rain mn
cm
humidity
%
barometer
mb
20260506202038 16 5 0.0 6.4 0.00 0.00 0.00 74 1006.2
20260506201530 16 5 0.0 9.7 0.00 0.00 0.00 74 1006.2
20260506201030 16 5 0.0 3.2 0.00 0.00 0.00 74 1006.2
20260506200519 16 5 0.0 4.8 0.00 0.00 0.00 74 1006.3
20260506200024 16 5 0.0 6.4 0.00 0.00 0.00 74 1006.2
20260506195510 16 5 1.6 8.0 0.00 0.00 0.00 74 1006.2
20260506195010 16 5 0.0 8.0 0.00 0.00 0.00 74 1006.3
20260506194502 16 5 0.0 6.4 0.00 0.00 0.00 74 1006.3
20260506194101 16 5 0.0 6.4 0.00 0.00 0.00 74 1006.3
20260506193553 16 5 0.0 6.4 0.00 0.00 0.00 74 1006.3
20260506193051 16 5 0.0 8.0 0.00 0.00 0.00 74 1006.3
20260506192542 16 5 0.0 8.0 0.00 0.00 0.00 74 1006.3
20260506192044 16 5 0.0 8.0 0.00 0.00 0.00 74 1006.4
20260506191534 16 5 0.0 8.0 0.00 0.00 0.00 74 1006.4
20260506191034 15 5 0.0 6.4 0.00 0.00 0.00 74 1006.4
20260506190523 15 5 0.0 8.0 0.00 0.00 0.00 74 1006.5
20260506190035 15 5 1.6 8.0 0.00 0.00 0.00 74 1006.6
20260506185518 15 5 0.0 9.7 0.00 0.00 0.00 74 1006.7
20260506185018 15 5 1.6 11.3 0.00 0.00 0.00 74 1006.7
20260506184508 15 5 0.0 12.9 0.00 0.00 0.00 74 1006.7
20260506184009 15 5 0.0 3.2 0.00 0.00 0.00 74 1006.8
20260506183600 15 5 0.0 3.2 0.00 0.00 0.00 74 1006.9
20260506183111 15 5 0.0 4.8 0.00 0.00 0.00 74 1006.9
20260506182551 15 5 0.0 9.7 0.00 0.00 0.00 74 1007.0
20260506182051 15 5 0.0 9.7 0.00 0.00 0.00 74 1007.0
20260506181542 15 5 0.0 4.8 0.00 0.00 0.00 74 1007.0
20260506181044 15 5 0.0 4.8 0.00 0.00 0.00 74 1007.0
20260506180544 15 5 0.0 4.8 0.00 0.00 0.00 74 1007.0
20260506180045 15 5 0.0 6.4 0.00 0.00 0.00 74 1007.0
20260506175531 15 5 1.6 6.4 0.00 0.00 0.00 74 1007.1
20260506175033 15 5 0.0 1.6 0.00 0.00 0.00 73 1007.1
20260506174530 15 5 0.0 8.0 0.00 0.00 0.00 73 1007.1
20260506174030 15 5 1.6 8.0 0.00 0.00 0.00 73 1007.2
20260506173522 15 5 0.0 4.8 0.00 0.00 0.00 73 1007.2
20260506173019 15 5 0.0 4.8 0.00 0.00 0.00 73 1007.1
20260506172513 15 5 0.0 3.2 0.00 0.00 0.00 73 1007.0
20260506172014 15 5 0.0 4.8 0.00 0.00 0.00 73 1007.1
20260506171510 15 5 0.0 6.4 0.00 0.00 0.00 73 1007.1
20260506171007 15 5 0.0 8.0 0.00 0.00 0.00 73 1007.1
20260506170504 15 5 0.0 9.7 0.00 0.00 0.00 73 1007.2
20260506170005 15 5 1.6 9.7 0.00 0.00 0.00 73 1007.3
20260506165600 15 5 0.0 8.0 0.00 0.00 0.00 73 1007.2
20260506165056 15 5 0.0 6.4 0.00 0.00 0.00 73 1007.3
20260506164553 15 5 0.0 4.8 0.00 0.00 0.00 73 1007.2
20260506164054 15 5 0.0 3.2 0.00 0.00 0.00 73 1007.2
20260506163554 15 5 0.0 1.6 0.00 0.00 0.00 73 1007.2
20260506163109 15 5 0.0 8.0 0.00 0.00 0.00 73 1007.3
20260506162542 15 5 0.0 8.0 0.00 0.00 0.00 73 1007.3
20260506162040 15 5 0.0 3.2 0.00 0.00 0.00 73 1007.3
20260506161530 15 5 0.0 4.8 0.00 0.00 0.00 73 1007.2
20260506161030 15 5 0.0 4.8 0.00 0.00 0.00 73 1007.2
20260506160520 15 5 0.0 8.0 0.00 0.00 0.00 73 1007.2
20260506160021 15 5 0.0 8.0 0.00 0.00 0.00 73 1007.3
20260506155512 15 5 0.0 6.4 0.00 0.00 0.00 73 1007.3
20260506155014 15 5 1.6 6.4 0.00 0.00 0.00 73 1007.3
20260506154526 15 5 1.6 6.4 0.00 0.00 0.00 73 1007.2
20260506154008 15 5 0.0 6.4 0.00 0.00 0.00 73 1007.1
20260506153601 15 5 0.0 6.4 0.00 0.00 0.00 72 1007.4
20260506153121 15 5 0.0 3.2 0.00 0.00 0.00 72 1007.7
20260506152546 15 5 0.0 4.8 0.00 0.00 0.00 72 1007.9
20260506152048 15 5 0.0 6.4 0.00 0.00 0.00 72 1008.2
20260506151542 15 5 1.6 9.7 0.00 0.00 0.00 72 1008.2
20260506151026 15 5 0.0 9.7 0.00 0.00 0.00 72 1008.3
20260506150519 16 5 0.0 8.0 0.00 0.00 0.00 72 1008.1
20260506150016 16 5 1.6 8.0 0.00 0.00 0.00 72 1008.1
20260506145511 16 5 0.0 4.8 0.00 0.00 0.00 72 1007.9
20260506145010 16 5 0.0 4.8 0.00 0.00 0.00 72 1007.8
20260506144605 16 5 0.0 1.6 0.00 0.00 0.00 72 1007.8
20260506144054 16 5 0.0 1.6 0.00 0.00 0.00 72 1008.0
20260506144001 16 5 0.0 1.6 0.00 0.00 0.00 72 1008.0
20260506143556 16 5 0.0 1.6 0.00 0.00 0.00 72 1007.8
20260506143047 16 5 0.0 4.8 0.00 0.00 0.00 71 1007.7
20260506142547 16 5 0.0 4.8 0.00 0.00 0.00 71 1007.8
20260506142036 16 5 0.0 0.0 0.00 0.00 0.00 71 1008.0
20260506141539 16 5 0.0 0.0 0.00 0.00 0.00 71 1008.3
20260506141029 16 5 0.0 0.0 0.00 0.00 0.00 71 1008.3
20260506140526 16 5 0.0 0.0 0.00 0.00 0.00 71 1008.2
20260506140029 16 5 0.0 4.8 0.00 0.00 0.00 70 1008.1
20260506135519 16 5 0.0 4.8 0.00 0.00 0.00 70 1008.1
20260506135008 16 5 0.0 3.2 0.00 0.00 0.00 70 1008.1
20260506134512 16 5 0.0 4.8 0.00 0.00 0.00 70 1008.0
20260506134011 16 5 0.0 4.8 0.00 0.00 0.00 70 1008.0
20260506133508 16 5 0.0 4.8 0.00 0.00 0.00 69 1008.2
20260506133004 16 5 0.0 6.4 0.00 0.00 0.00 69 1008.2
20260506132510 16 5 1.6 8.0 0.00 0.00 0.00 68 1008.3
20260506132002 16 5 0.0 8.0 0.00 0.00 0.00 68 1008.4
20260506131504 16 5 0.0 4.8 0.00 0.00 0.00 68 1008.4
20260506131012 16 5 0.0 11.3 0.00 0.00 0.00 68 1008.4
20260506130510 16 5 1.6 11.3 0.00 0.00 0.00 68 1008.3
20260506130058 16 5 0.0 9.7 0.00 0.00 0.00 67 1008.4
20260506125557 16 5 0.0 11.3 0.00 0.00 0.00 67 1008.4
20260506125048 16 5 1.6 9.7 0.00 0.00 0.00 67 1008.5
20260506124548 17 5 0.0 6.4 0.00 0.00 0.00 67 1008.4
20260506124044 17 5 1.6 6.4 0.00 0.00 0.00 67 1008.4
20260506123542 17 5 0.0 4.8 0.00 0.00 0.00 67 1008.4
20260506123034 17 5 0.0 8.0 0.00 0.00 0.00 67 1008.2
20260506122531 17 5 0.0 8.0 0.00 0.00 0.00 67 1008.2
20260506122024 17 5 1.6 8.0 0.00 0.00 0.00 66 1008.2
20260506121527 17 5 1.6 8.0 0.00 0.00 0.00 66 1008.1
20260506121020 17 5 1.6 9.7 0.00 0.00 0.00 66 1008.0
20260506120520 17 5 0.0 6.4 0.00 0.00 0.00 66 1007.9
20260506120012 17 5 0.0 6.4 0.00 0.00 0.00 66 1007.9
20260506115510 17 5 0.0 4.8 0.00 0.00 0.00 66 1007.9
20260506115002 17 5 0.0 6.4 0.00 0.00 0.00 66 1007.9
20260506114602 17 5 0.0 12.9 0.00 0.00 0.00 66 1008.0
20260506114058 17 5 3.2 12.9 0.00 0.00 0.00 66 1008.0
20260506113600 17 5 0.0 6.4 0.00 0.00 0.00 67 1007.9
20260506113050 17 5 1.6 6.4 0.00 0.00 0.00 67 1007.9
20260506112554 17 5 0.0 11.3 0.00 0.00 0.00 67 1007.9
20260506112054 16 360 0.0 11.3 0.00 0.00 0.00 67 1008.0
20260506111554 16 5 0.0 6.4 0.00 0.00 0.00 67 1008.0
20260506111044 16 5 0.0 0.0 0.00 0.00 0.00 67 1008.0
20260506110544 16 5 0.0 0.0 0.00 0.00 0.00 68 1008.0
20260506110040 15 5 0.0 3.2 0.00 0.00 0.00 68 1008.0
20260506105534 15 5 0.0 3.2 0.00 0.00 0.00 68 1007.8
20260506105025 15 5 0.0 3.2 0.00 0.00 0.00 68 1007.7
20260506104526 14 5 0.0 3.2 0.00 0.00 0.00 68 1007.6
20260506104021 14 5 0.0 1.6 0.00 0.00 0.00 68 1007.6
20260506103514 14 5 0.0 1.6 0.00 0.00 0.00 68 1007.4
20260506103004 13 5 0.0 1.6 0.00 0.00 0.00 68 1007.4
20260506102504 13 5 0.0 0.0 0.00 0.00 0.00 69 1007.5
20260506102100 13 5 0.0 0.0 0.00 0.00 0.00 69 1007.4
20260506101629 13 5 0.0 0.0 0.00 0.00 0.00 69 1007.4
20260506101054 13 5 0.0 0.0 0.00 0.00 0.00 68 1007.3
20260506100552 13 5 0.0 0.0 0.00 0.00 0.00 68 1007.4
20260506100044 13 5 0.0 0.0 0.00 0.00 0.00 68 1007.4
20260506095542 13 5 0.0 0.0 0.00 0.00 0.00 68 1007.5
20260506095038 13 5 0.0 0.0 0.00 0.00 0.00 68 1007.5
20260506094538 13 5 0.0 0.0 0.00 0.00 0.00 68 1007.6
20260506094028 13 5 0.0 0.0 0.00 0.00 0.00 68 1007.7
20260506093532 13 5 0.0 0.0 0.00 0.00 0.00 68 1007.7
20260506093026 13 5 0.0 0.0 0.00 0.00 0.00 68 1007.6
20260506092524 13 5 0.0 0.0 0.00 0.00 0.00 68 1007.5
20260506092016 13 5 0.0 0.0 0.00 0.00 0.00 68 1007.6
20260506091514 13 5 0.0 0.0 0.00 0.00 0.00 68 1007.6
20260506091010 13 5 0.0 0.0 0.00 0.00 0.00 68 1007.7
20260506090504 13 5 0.0 0.0 0.00 0.00 0.00 68 1007.6
20260506090110 13 5 0.0 0.0 0.00 0.00 0.00 68 1007.7
20260506085558 13 5 0.0 0.0 0.00 0.00 0.00 68 1007.6
20260506085049 13 5 0.0 0.0 0.00 0.00 0.00 68 1007.6
20260506084556 13 5 0.0 0.0 0.00 0.00 0.00 68 1007.7
20260506084038 13 5 0.0 0.0 0.00 0.00 0.00 68 1007.8
20260506083542 13 5 0.0 0.0 0.00 0.00 0.00 68 1007.8
20260506083033 13 5 0.0 0.0 0.00 0.00 0.00 68 1007.8
20260506082533 13 5 0.0 0.0 0.00 0.00 0.00 68 1007.8
20260506082026 13 5 0.0 0.0 0.00 0.00 0.00 68 1007.8
20260506081526 13 5 0.0 0.0 0.00 0.00 0.00 67 1007.8
20260506081018 13 5 0.0 0.0 0.00 0.00 0.00 67 1007.8
20260506080516 13 5 0.0 0.0 0.00 0.00 0.00 67 1007.7
20260506073034 13 5 0.0 0.0 0.00 0.00 0.00 67 1007.9
20260506072536 13 5 0.0 0.0 0.00 0.00 0.00 67 1008.0
20260506072034 13 5 0.0 0.0 0.00 0.00 0.00 67 1008.0
20260506071534 13 5 0.0 0.0 0.00 0.00 0.00 67 1008.1
20260506071035 14 5 0.0 0.0 0.00 0.00 0.00 67 1008.1
20260506070535 14 5 0.0 0.0 0.00 0.00 0.00 66 1008.1
20260506062516 14 5 0.0 0.0 0.00 0.00 0.00 66 1008.4
20260506062012 14 5 0.0 0.0 0.00 0.00 0.00 67 1008.5
20260506061602 14 5 0.0 0.0 0.00 0.00 0.00 66 1008.5
20260506061003 14 5 0.0 0.0 0.00 0.00 0.00 66 1008.5
20260506060555 14 5 0.0 0.0 0.00 0.00 0.00 66 1008.6
20260506051012 16 5 0.0 0.0 0.00 0.00 0.00 63 1008.9
20260506050504 16 5 0.0 0.0 0.00 0.00 0.00 63 1008.9
20260506045058 16 5 0.0 0.0 0.00 0.00 0.00 63 1008.9
20260506044550 16 5 0.0 0.0 0.00 0.00 0.00 63 1009.0
20260506044048 16 5 0.0 0.0 0.00 0.00 0.00 63 1009.0
20260506043544 17 5 0.0 0.0 0.00 0.00 0.00 62 1009.0
20260506043042 17 5 0.0 0.0 0.00 0.00 0.00 61 1009.0
20260506042540 17 5 0.0 0.0 0.00 0.00 0.00 60 1008.9
20260506042042 17 5 0.0 0.0 0.00 0.00 0.00 60 1008.9
20260506041551 17 5 0.0 0.0 0.00 0.00 0.00 60 1008.9
20260506041034 17 5 0.0 0.0 0.00 0.00 0.00 60 1009.0
20260506040524 17 5 0.0 0.0 0.00 0.00 0.00 60 1009.0
20260506040032 18 5 0.0 0.0 0.00 0.00 0.00 60 1009.0
20260506035516 18 5 0.0 0.0 0.00 0.00 0.00 59 1009.0
20260506035012 18 5 0.0 0.0 0.00 0.00 0.00 59 1008.9
20260506034503 18 5 0.0 0.0 0.00 0.00 0.00 58 1008.9
20260506034004 18 5 0.0 0.0 0.00 0.00 0.00 58 1008.9
20260506033600 18 5 0.0 0.0 0.00 0.00 0.00 57 1008.9
20260506033058 18 5 0.0 0.0 0.00 0.00 0.00 57 1008.9
20260506032550 19 5 0.0 0.0 0.00 0.00 0.00 56 1008.9
20260506032048 19 5 0.0 1.6 0.00 0.00 0.00 56 1008.9
20260506031541 19 5 0.0 1.6 0.00 0.00 0.00 56 1008.8
20260506031037 20 5 0.0 0.0 0.00 0.00 0.00 55 1008.9
20260506030531 20 5 0.0 0.0 0.00 0.00 0.00 55 1008.9
20260506030028 20 5 0.0 1.6 0.00 0.00 0.00 54 1008.8
20260506025529 20 5 0.0 6.4 0.00 0.00 0.00 54 1008.8
20260506025024 20 5 0.0 4.8 0.00 0.00 0.00 54 1008.8
20260506024519 20 5 0.0 6.4 0.00 0.00 0.00 53 1008.8
20260506024016 20 5 0.0 3.2 0.00 0.00 0.00 53 1008.9
20260506023509 20 5 0.0 4.8 0.00 0.00 0.00 53 1008.9
20260506023011 20 5 0.0 4.8 0.00 0.00 0.00 53 1008.9
20260506022502 20 5 0.0 4.8 0.00 0.00 0.00 53 1008.8
20260506022105 20 5 0.0 9.7 0.00 0.00 0.00 53 1008.9
20260506021554 21 5 0.0 9.7 0.00 0.00 0.00 53 1008.9
20260506021058 21 5 0.0 6.4 0.00 0.00 0.00 52 1008.9
20260506020548 21 5 0.0 1.6 0.00 0.00 0.00 52 1008.9
20260506020053 21 5 0.0 3.2 0.00 0.00 0.00 51 1008.9
20260506015540 21 5 0.0 3.2 0.00 0.00 0.00 51 1008.9
20260506015040 21 5 0.0 8.0 0.00 0.00 0.00 50 1008.8
20260506014532 21 5 1.6 8.0 0.00 0.00 0.00 50 1008.8
20260506014034 21 5 0.0 6.4 0.00 0.00 0.00 50 1008.8
20260506013528 21 5 0.0 3.2 0.00 0.00 0.00 48 1008.8
20260506013038 21 5 0.0 3.2 0.00 0.00 0.00 48 1008.7
20260506012516 22 5 0.0 8.0 0.00 0.00 0.00 46 1008.6
20260506012017 22 5 0.0 8.0 0.00 0.00 0.00 46 1008.6
20260506011522 22 5 0.0 9.7 0.00 0.00 0.00 47 1008.4
20260506011010 22 5 1.6 9.7 0.00 0.00 0.00 46 1008.3
20260506010504 22 5 0.0 4.8 0.00 0.00 0.00 46 1008.2
20260506010008 22 5 0.0 4.8 0.00 0.00 0.00 46 1008.2
20260506005556 22 5 0.0 4.8 0.00 0.00 0.00 46 1008.1
20260506005056 22 5 0.0 4.8 0.00 0.00 0.00 46 1008.0
20260506004546 22 5 0.0 8.0 0.00 0.00 0.00 46 1007.9
20260506004046 22 5 0.0 6.4 0.00 0.00 0.00 47 1007.9
20260506003536 22 5 0.0 11.3 0.00 0.00 0.00 46 1007.8
20260506003036 22 5 1.6 11.3 0.00 0.00 0.00 47 1007.8
20260506002532 22 5 0.0 8.0 0.00 0.00 0.00 46 1007.8
20260506002030 22 5 0.0 8.0 0.00 0.00 0.00 46 1007.8
20260506001522 22 5 0.0 8.0 0.00 0.00 0.00 45 1007.7
20260506001020 22 5 1.6 6.4 0.00 0.00 0.00 45 1007.6
20260506000512 22 5 0.0 4.8 0.00 0.00 0.00 46 1007.6
20260506000010 23 5 0.0 4.8 0.00 0.00 0.00 44 1007.5
20260505235503 23 5 0.0 3.2 0.00 0.00 0.00 44 1007.5
20260505235002 23 5 0.0 12.9 0.00 0.00 0.00 43 1007.5
20260505234555 23 5 0.0 12.9 0.00 0.00 0.00 43 1007.5
20260505234102 23 5 1.6 6.4 0.00 0.00 0.00 43 1007.5
20260505233554 23 5 0.0 9.7 0.00 0.00 0.00 42 1007.3
20260505233058 23 5 0.0 9.7 0.00 0.00 0.00 42 1007.3
20260505232554 24 5 0.0 12.9 0.00 0.00 0.00 41 1007.2
20260505232100 24 5 0.0 8.0 0.00 0.00 0.00 41 1007.3
20260505231550 24 5 0.0 8.0 0.00 0.00 0.00 41 1007.2
20260505231055 24 5 0.0 8.0 0.00 0.00 0.00 41 1007.3
20260505230546 24 5 0.0 6.4 0.00 0.00 0.00 41 1007.2
20260505230118 24 5 0.0 4.8 0.00 0.00 0.00 41 1007.2
20260505225543 25 5 0.0 16.1 0.00 0.00 0.00 42 1007.2
20260505225035 25 5 3.2 11.3 0.00 0.00 0.00 40 1007.1
20260505224520 25 5 0.0 11.3 0.00 0.00 0.00 41 1007.1
20260505224023 25 5 1.6 19.3 0.00 0.00 0.00 40 1007.0
20260505223514 25 5 3.2 19.3 0.00 0.00 0.00 40 1007.0
20260505223017 25 5 1.6 11.3 0.00 0.00 0.00 40 1007.1
20260505222508 25 5 0.0 12.9 0.00 0.00 0.00 40 1007.0
20260505222058 26 5 4.8 20.9 0.00 0.00 0.00 39 1007.1
20260505222008 26 5 4.8 20.9 0.00 0.00 0.00 39 1007.1
20260505221604 26 5 6.4 20.9 0.00 0.00 0.00 40 1006.9
20260505221047 26 5 1.6 9.7 0.00 0.00 0.00 40 1007.0
20260505220549 26 5 1.6 9.7 0.00 0.00 0.00 40 1006.9
20260505220052 26 5 1.6 9.7 0.00 0.00 0.00 39 1006.9
20260505215542 26 5 1.6 8.0 0.00 0.00 0.00 41 1006.8
20260505215030 26 5 0.0 12.9 0.00 0.00 0.00 41 1006.8
20260505214534 25 5 3.2 14.5 0.00 0.00 0.00 40 1006.9
20260505214027 26 5 4.8 16.1 0.00 0.00 0.00 41 1006.9
20260505213529 26 5 4.8 11.3 0.00 0.00 0.00 39 1006.9
20260505213021 26 5 3.2 12.9 0.00 0.00 0.00 39 1007.0
20260505212520 26 5 1.6 12.9 0.00 0.00 0.00 39 1006.9
20260505212016 26 5 1.6 9.7 0.00 0.00 0.00 39 1006.8
20260505211516 26 5 3.2 12.9 0.00 0.00 0.00 40 1006.8
20260505211008 26 5 3.2 19.3 0.00 0.00 0.00 40 1006.9
20260505210510 26 5 4.8 24.1 0.00 0.00 0.00 39 1007.0
20260505210006 26 5 3.2 24.1 0.00 0.00 0.00 39 1006.9
20260505205511 26 5 3.2 14.5 0.00 0.00 0.00 40 1007.0
20260505205104 26 5 0.0 17.7 0.00 0.00 0.00 40 1006.9
20260505204605 27 5 3.2 17.7 0.00 0.00 0.00 38 1006.8
20260505204052 27 5 3.2 20.9 0.00 0.00 0.00 38 1006.9
20260505203556 27 5 6.4 20.9 0.00 0.00 0.00 39 1006.8
20260505203046 27 5 4.8 16.1 0.00 0.00 0.00 39 1006.9
20260505202552 27 5 0.0 11.3 0.00 0.00 0.00 39 1006.9